Weather History for KCSM - January, 2013

Change the Weather History Date:

Tuesday, January 15, 2013

  Actual Average Record
Temperature  
Mean Temperature 27 °F -  
Max Temperature 35 °F 47 °F 71 °F (2000)
Min Temperature 19 °F 27 °F 10 °F (2009)
Degree Days  
Heating Degree Days 38    
Moisture  
Dew Point 14 °F    
Average Humidity 63    
Maximum Humidity 82    
Minimum Humidity 37    
Precipitation  
Precipitation 0.00 in - - ()
Sea Level Pressure  
Sea Level Pressure 30.30 in    
Wind  
Wind Speed 8 mph (North)    
Max Wind Speed 13 mph    
Max Gust Speed -    
Visibility 10 miles    
Events      
Averages and records for this station are not official NWS values.
T = Trace of Precipitation, MM = Missing Value Source: NWS Daily Summary

Daily Weather History Graph

Daily Weather History Graph

Search for Another Location

Airport or City:

Trip Planner

Search our weather history database for the weather conditions in past years. The results will help you decide how hot, cold, wet, or windy it might be!

Date:

Astronomy

Jan. 15, 2013 Rise Set
Actual Time 7:45 AM CST 5:48 PM CST
Civil Twilight 7:17 AM CST 6:15 PM CST
Nautical Twilight 6:46 AM CST 6:46 PM CST
Astronomical Twilight 6:15 AM CST 7:17 PM CST
Moon 10:02 AM CST (1/15) 10:26 PM CST (1/15)
Length of Visible Light 10h 58m
Length of Day
10h 02m
Waxing Crescent, 19% of the Moon is Illuminated
Jan 15
Waxing Crescent
Jan 18
First Quarter
Jan 26
Full
Feb 3
Last Quarter
Feb 10
New

Hourly Weather History & Observations

Time (CST) Temp. Windchill Dew Point Humidity Pressure Visibility Wind Dir Wind Speed Gust Speed Precip Events Conditions
12:53 AM 24.1 °F 14.4 °F 14.0 °F 65% 30.32 in 10.0 mi North 9.2 mph - N/A   Overcast
1:53 AM 24.1 °F 15.2 °F 14.0 °F 65% 30.32 in 10.0 mi North 8.1 mph - N/A   Overcast
2:53 AM 23.0 °F 13.1 °F 14.0 °F 68% 30.31 in 10.0 mi NNE 9.2 mph - N/A   Mostly Cloudy
3:53 AM 21.0 °F 13.4 °F 14.0 °F 74% 30.31 in 10.0 mi NNE 5.8 mph - N/A   Mostly Cloudy
5:53 AM 19.9 °F 11.1 °F 15.1 °F 81% 30.31 in 10.0 mi NNW 6.9 mph - N/A   Clear
6:53 AM 19.9 °F 10.1 °F 14.0 °F 78% 30.30 in 10.0 mi North 8.1 mph - N/A   Clear
7:53 AM 21.0 °F 11.4 °F 15.1 °F 78% 30.31 in 10.0 mi North 8.1 mph - N/A   Partly Cloudy
8:53 AM 23.0 °F 13.1 °F 16.0 °F 74% 30.33 in 10.0 mi NNE 9.2 mph - N/A   Overcast
9:53 AM 24.1 °F 13.7 °F 14.0 °F 65% 30.35 in 10.0 mi North 10.4 mph - N/A   Overcast
10:53 AM 27.0 °F 18.7 °F 12.9 °F 56% 30.34 in 10.0 mi NNE 8.1 mph - N/A   Overcast
11:53 AM 28.0 °F 20.0 °F 12.9 °F 53% 30.31 in 10.0 mi North 8.1 mph - N/A   Overcast
12:53 PM 30.9 °F 22.2 °F 12.9 °F 47% 30.27 in 10.0 mi NNW 10.4 mph - N/A   Overcast
1:53 PM 33.1 °F 24.4 °F 9.0 °F 37% 30.25 in 10.0 mi North 11.5 mph - N/A   Mostly Cloudy
2:53 PM 34.0 °F 25.0 °F 10.9 °F 38% 30.25 in 10.0 mi North 12.7 mph - N/A   Mostly Cloudy
3:53 PM 35.1 °F 27.4 °F 10.9 °F 37% 30.27 in 10.0 mi NNW 10.4 mph - N/A   Overcast
4:53 PM 33.1 °F 26.9 °F 10.0 °F 38% 30.28 in 10.0 mi North 6.9 mph - N/A   Clear
5:53 PM 28.9 °F 22.8 °F 12.9 °F 51% 30.29 in 10.0 mi North 5.8 mph - N/A   Clear
6:53 PM 28.0 °F 24.2 °F 14.0 °F 56% 30.30 in 10.0 mi NNW 3.5 mph - N/A   Clear
7:53 PM 24.1 °F - 17.1 °F 75% 30.30 in 10.0 mi Calm Calm - N/A   Clear
8:53 PM 21.9 °F - 17.1 °F 82% 30.30 in 10.0 mi Calm Calm - N/A   Clear
9:53 PM 21.9 °F - 15.1 °F 75% 30.30 in 10.0 mi Calm Calm - N/A   Clear
10:53 PM 19.0 °F 10.0 °F 12.9 °F 77% 30.29 in 10.0 mi SSW 6.9 mph - N/A   Clear
11:53 PM 19.9 °F - 12.0 °F 71% 30.29 in 10.0 mi North - - N/A   Clear